Corvallis, OR

8:07 PM PDT on September 25, 2017 (GMT -0700)
Corvallis Municipal

Weather History for KCVO - March, 2014

Change the Weather History Date:

Monday, March 31, 2014

  Actual Average Record
Temperature  
Mean Temperature 42 °F -  
Max Temperature 48 °F 56 °F 75 °F (2013)
Min Temperature 35 °F 37 °F 28 °F (2008)
Degree Days  
Heating Degree Days 24    
Moisture  
Dew Point 40 °F    
Average Humidity 89    
Maximum Humidity 100    
Minimum Humidity 81    
Precipitation  
Precipitation 0.10 in - - ()
Sea Level Pressure  
Sea Level Pressure 29.79 in    
Wind  
Wind Speed 3 mph (WNW)    
Max Wind Speed 9 mph    
Max Gust Speed -    
Visibility 10 miles    
Events      
Averages and records for this station are not official NWS values.
T = Trace of Precipitation, MM = Missing Value Source: NWS Daily Summary

Daily Weather History Graph

Daily Weather History Graph

Search for Another Location

Airport or City:

Trip Planner

Search our weather history database for the weather conditions in past years. The results will help you decide how hot, cold, wet, or windy it might be!

Date:

Astronomy

Mar. 31, 2014 Rise Set
Actual Time 6:55 AM PDT 7:39 PM PDT
Civil Twilight 6:26 AM PDT 8:08 PM PDT
Nautical Twilight 5:51 AM PDT 8:43 PM PDT
Astronomical Twilight 5:15 AM PDT 9:20 PM PDT
Moon 7:20 AM PDT (3/31) 9:08 PM PDT (3/31)
Length of Visible Light 13h 42m
Length of Day
12h 43m
New Moon, 1% of the Moon is Illuminated
Mar 31
New Moon
Apr 7
First Quarter
Apr 15
Full
Apr 22
Last Quarter
Apr 28
New

Hourly Weather History & Observations

Time (PDT) Temp. Windchill Dew Point Humidity Pressure Visibility Wind Dir Wind Speed Gust Speed Precip Events Conditions
12:15 AM 39.2 °F 37.0 °F 35.6 °F 87% 29.96 in 2.0 mi WNW 3.5 mph - N/A   Scattered Clouds
12:35 AM 37.4 °F 34.9 °F 35.6 °F 93% 29.95 in 5.0 mi NNW 3.5 mph - N/A   Clear
12:55 AM 37.4 °F 33.8 °F 35.6 °F 93% 29.95 in 10.0 mi West 4.6 mph - N/A   Clear
1:15 AM 37.4 °F 34.9 °F 35.6 °F 93% 29.94 in 10.0 mi WNW 3.5 mph - N/A   Clear
1:35 AM 37.4 °F 34.9 °F 35.6 °F 93% 29.94 in 10.0 mi NNW 3.5 mph - N/A   Clear
1:55 AM 37.4 °F 33.8 °F 35.6 °F 93% 29.93 in 7.0 mi WNW 4.6 mph - N/A   Clear
2:15 AM 37.4 °F - 33.8 °F 87% 29.92 in 10.0 mi Calm Calm - N/A   Clear
2:35 AM 37.4 °F - 35.6 °F 93% 29.92 in - Calm Calm - N/A   Unknown
2:55 AM 37.4 °F - 35.6 °F 93% 29.91 in - Calm Calm - N/A   Unknown
3:15 AM 35.6 °F 32.8 °F 33.8 °F 93% 29.90 in - NW 3.5 mph - N/A   Unknown
3:35 AM 35.6 °F 31.7 °F 33.8 °F 93% 29.89 in - WNW 4.6 mph - N/A   Unknown
3:55 AM 35.6 °F 32.8 °F 33.8 °F 93% 29.88 in 10.0 mi NW 3.5 mph - N/A   Clear
4:15 AM 35.6 °F 30.7 °F 33.8 °F 93% 29.88 in 2.5 mi WNW 5.8 mph - N/A   Scattered Clouds
4:35 AM 35.6 °F 31.7 °F 33.8 °F 93% 29.87 in 2.5 mi West 4.6 mph - N/A   Scattered Clouds
4:55 AM 35.6 °F 32.8 °F 33.8 °F 93% 29.86 in 10.0 mi WNW 3.5 mph - N/A   Clear
5:15 AM 35.6 °F - 35.6 °F 100% 29.85 in 10.0 mi Calm Calm - N/A   Clear
5:35 AM 37.4 °F - 33.8 °F 87% 29.84 in 10.0 mi Calm Calm - N/A   Clear
5:55 AM 37.4 °F 34.9 °F 35.6 °F 93% 29.83 in - WNW 3.5 mph - N/A   Unknown
6:15 AM 37.4 °F - 35.6 °F 93% 29.82 in 10.0 mi Calm Calm - N/A   Clear
6:35 AM 37.4 °F 34.9 °F 35.6 °F 93% 29.82 in 10.0 mi NW 3.5 mph - N/A   Partly Cloudy
6:55 AM 37.4 °F 34.9 °F 35.6 °F 93% 29.81 in 10.0 mi NW 3.5 mph - N/A   Mostly Cloudy
7:15 AM 37.4 °F 34.9 °F 35.6 °F 93% 29.81 in 10.0 mi NW 3.5 mph - N/A   Scattered Clouds
7:35 AM 37.4 °F - 35.6 °F 93% 29.81 in 10.0 mi Calm Calm - N/A   Partly Cloudy
7:55 AM 39.2 °F 37.0 °F 37.4 °F 93% 29.80 in 10.0 mi NNW 3.5 mph - N/A   Mostly Cloudy
8:15 AM 39.2 °F 35.9 °F 37.4 °F 93% 29.79 in 10.0 mi North 4.6 mph - N/A   Mostly Cloudy
8:35 AM 39.2 °F 37.0 °F 37.4 °F 93% 29.79 in 10.0 mi WNW 3.5 mph - N/A   Overcast
8:55 AM 41.0 °F 38.0 °F 37.4 °F 87% 29.79 in 10.0 mi WNW 4.6 mph - N/A   Mostly Cloudy
9:15 AM 41.0 °F 39.0 °F 37.4 °F 87% 29.80 in 10.0 mi WSW 3.5 mph - N/A   Mostly Cloudy
9:35 AM 42.8 °F - 39.2 °F 87% 29.80 in 10.0 mi Calm Calm - N/A   Mostly Cloudy
9:55 AM 42.8 °F 41.1 °F 39.2 °F 87% 29.80 in 10.0 mi SSE 3.5 mph - N/A   Overcast
10:15 AM 42.8 °F - 39.2 °F 87% 29.80 in 10.0 mi Calm Calm - N/A   Overcast
10:35 AM 44.6 °F - 41.0 °F 87% 29.80 in 10.0 mi Calm Calm - N/A   Mostly Cloudy
10:55 AM 44.6 °F 43.1 °F 39.2 °F 81% 29.78 in 10.0 mi NNE 3.5 mph - N/A   Mostly Cloudy
11:15 AM 44.6 °F 43.1 °F 39.2 °F 81% 29.80 in 10.0 mi SE 3.5 mph - N/A   Overcast
11:35 AM 44.6 °F - 39.2 °F 81% 29.79 in 10.0 mi Calm Calm - N/A   Overcast
11:55 AM 44.6 °F 42.2 °F 39.2 °F 81% 29.77 in 10.0 mi North 4.6 mph - N/A   Overcast
12:15 PM 44.6 °F 43.1 °F 41.0 °F 87% 29.78 in 10.0 mi SW 3.5 mph - N/A   Overcast
12:35 PM 44.6 °F - 41.0 °F 87% 29.78 in 10.0 mi Calm Calm - N/A   Overcast
12:55 PM 46.4 °F 43.5 °F 42.8 °F 87% 29.77 in 10.0 mi ESE 5.8 mph - N/A   Overcast
1:15 PM 46.4 °F 43.5 °F 42.8 °F 87% 29.77 in 10.0 mi South 5.8 mph - N/A   Overcast
1:35 PM 46.4 °F 44.3 °F 42.8 °F 87% 29.77 in 10.0 mi SSE 4.6 mph - N/A   Overcast
1:55 PM 46.4 °F - 42.8 °F 87% 29.76 in 10.0 mi Calm Calm - N/A   Overcast
2:15 PM 46.4 °F 43.5 °F 42.8 °F 87% 29.76 in 10.0 mi East 5.8 mph - N/A   Overcast
2:35 PM 46.4 °F 45.2 °F 42.8 °F 87% 29.76 in 10.0 mi South 3.5 mph - N/A   Overcast
2:55 PM 46.4 °F 45.2 °F 42.8 °F 87% 29.75 in 10.0 mi East 3.5 mph - N/A   Overcast
3:15 PM 46.4 °F 45.2 °F 42.8 °F 87% 29.74 in 10.0 mi ENE 3.5 mph - N/A   Overcast
3:35 PM 48.2 °F - 42.8 °F 82% 29.74 in 10.0 mi NE 3.5 mph - N/A   Overcast
3:55 PM 48.2 °F - 42.8 °F 82% 29.74 in 10.0 mi NE 3.5 mph - N/A   Overcast
4:15 PM 48.2 °F - 42.8 °F 82% 29.72 in 10.0 mi NNE 6.9 mph - N/A   Overcast
4:35 PM 46.4 °F 45.2 °F 42.8 °F 87% 29.73 in 10.0 mi North 3.5 mph - N/A   Overcast
4:55 PM 46.4 °F 45.2 °F 44.6 °F 93% 29.71 in 10.0 mi NNW 3.5 mph - N/A   Overcast
5:15 PM 48.2 °F - 44.6 °F 87% 29.70 in 10.0 mi NW 5.8 mph - N/A   Overcast
5:35 PM - - - N/A% 29.70 in 10.0 mi WNW 3.5 mph - N/A   Scattered Clouds
5:55 PM 48.2 °F - 42.8 °F 82% 29.70 in 10.0 mi Calm Calm - N/A   Clear
6:15 PM 48.2 °F - 44.6 °F 87% 29.70 in 10.0 mi Calm Calm - N/A   Partly Cloudy
6:35 PM 48.2 °F - 44.6 °F 87% 29.69 in 10.0 mi Calm Calm - N/A   Partly Cloudy
6:55 PM 46.4 °F 45.2 °F 44.6 °F 93% 29.69 in 10.0 mi NW 3.5 mph - N/A   Clear
7:15 PM 46.4 °F 44.3 °F 42.8 °F 87% 29.68 in 10.0 mi West 4.6 mph - N/A   Clear
7:35 PM 46.4 °F 43.5 °F 42.8 °F 87% 29.68 in 10.0 mi West 5.8 mph - N/A   Scattered Clouds
7:55 PM 46.4 °F 41.9 °F 42.8 °F 87% 29.69 in 10.0 mi West 9.2 mph - N/A   Overcast
8:15 PM 46.4 °F 41.9 °F 42.8 °F 87% 29.70 in 10.0 mi West 9.2 mph - N/A   Overcast
8:35 PM 46.4 °F 41.9 °F 41.0 °F 81% 29.71 in 10.0 mi West 9.2 mph - N/A   Overcast
8:55 PM 46.4 °F 42.4 °F 41.0 °F 81% 29.72 in 10.0 mi West 8.1 mph - N/A   Unknown
9:15 PM 46.4 °F 43.5 °F 42.8 °F 87% 29.73 in 10.0 mi SSW 5.8 mph - 0.02 in   Overcast
9:35 PM 46.4 °F 42.9 °F 42.8 °F 87% 29.74 in 10.0 mi South 6.9 mph - 0.03 in   Overcast
9:55 PM 44.6 °F 42.2 °F 42.8 °F 93% 29.74 in 7.0 mi South 4.6 mph - 0.04 in   Overcast
10:15 PM 46.4 °F 44.3 °F 42.8 °F 87% 29.74 in 10.0 mi SSE 4.6 mph - 0.02 in   Overcast
10:35 PM 46.4 °F 44.3 °F 42.8 °F 87% 29.74 in 10.0 mi South 4.6 mph - 0.03 in   Overcast
10:55 PM 44.6 °F 42.2 °F 42.8 °F 93% 29.75 in 10.0 mi South 4.6 mph - 0.03 in   Overcast
11:15 PM 44.6 °F 41.4 °F 42.8 °F 93% 29.75 in 10.0 mi South 5.8 mph - 0.01 in   Overcast
11:35 PM 44.6 °F 41.4 °F 42.8 °F 93% 29.76 in 10.0 mi SSW 5.8 mph - 0.03 in   Mostly Cloudy
11:55 PM 44.6 °F 40.7 °F 42.8 °F 93% 29.76 in 10.0 mi South 6.9 mph - 0.03 in   Mostly Cloudy